Moorhead, MN

5:51 AM CDT on October 21, 2017 (GMT -0500)
Moorhead Municipal

Weather History for KJKJ - February, 2013

Change the Weather History Date:

Friday, February 22, 2013

  Actual Average (KFAR) Record (KFAR)
Temperature  
Mean Temperature 14 °F -  
Max Temperature 17 °F 27 °F 49 °F (1958)
Min Temperature 10 °F 10 °F -30 °F (1891)
Degree Days  
Heating Degree Days 52    
Moisture  
Dew Point 13 °F    
Average Humidity 92    
Maximum Humidity 100    
Minimum Humidity 79    
Precipitation  
Precipitation 0.00 in - - ()
Sea Level Pressure  
Sea Level Pressure 30.01 in    
Wind  
Wind Speed 7 mph (North)    
Max Wind Speed 13 mph    
Max Gust Speed -    
Visibility 9 miles    
Events Snow    
Averages and records for this station are not official NWS values.
T = Trace of Precipitation, MM = Missing Value Source: NWS Daily Summary

Daily Weather History Graph

Daily Weather History Graph

Search for Another Location

Airport or City:

Trip Planner

Search our weather history database for the weather conditions in past years. The results will help you decide how hot, cold, wet, or windy it might be!

Date:

Astronomy

Feb. 22, 2013 Rise Set
Actual Time 7:18 AM CST 6:02 PM CST
Civil Twilight 6:47 AM CST 6:33 PM CST
Nautical Twilight 6:12 AM CST 7:08 PM CST
Astronomical Twilight 5:37 AM CST 7:43 PM CST
Moon 3:07 PM CST (2/22) 5:12 AM CST (2/22)
Length of Visible Light 11h 45m
Length of Day
10h 43m
Waxing Gibbous, 90% of the Moon is Illuminated
Feb 22
Waxing Gibbous
Feb 25
Full
Mar 4
Last Quarter
Mar 11
New
Mar 19
First Quarter

Hourly Weather History & Observations

Time (CST) Temp. Windchill Dew Point Humidity Pressure Visibility Wind Dir Wind Speed Gust Speed Precip Events Conditions
12:14 AM 10.4 °F 2.2 °F 8.6 °F 92% 30.15 in 10.0 mi North 4.6 mph - N/A   Scattered Clouds
12:35 AM 10.4 °F -0.4 °F 8.6 °F 92% 30.14 in 10.0 mi North 6.9 mph - N/A   Scattered Clouds
12:55 AM 10.4 °F 0.8 °F 8.6 °F 92% 30.14 in 10.0 mi North 5.8 mph - N/A   Clear
1:14 AM 10.4 °F 0.8 °F 8.6 °F 92% 30.14 in 10.0 mi North 5.8 mph - N/A   Scattered Clouds
1:35 AM 10.4 °F -0.4 °F 8.6 °F 92% 30.13 in 10.0 mi North 6.9 mph - N/A   Mostly Cloudy
1:55 AM 12.2 °F 4.3 °F 8.6 °F 85% 30.12 in 10.0 mi North 4.6 mph - N/A   Scattered Clouds
2:15 AM 12.2 °F 2.9 °F 8.6 °F 85% 30.12 in 10.0 mi North 5.8 mph - N/A   Clear
2:35 AM 12.2 °F 2.9 °F 8.6 °F 85% 30.11 in 10.0 mi North 5.8 mph - N/A   Clear
2:55 AM 12.2 °F 1.7 °F 8.6 °F 85% 30.10 in 10.0 mi North 6.9 mph - N/A   Clear
3:15 AM 12.2 °F 1.7 °F 8.6 °F 85% 30.10 in 10.0 mi North 6.9 mph - N/A   Clear
3:35 AM 12.2 °F 6.1 °F 10.4 °F 92% 30.09 in 10.0 mi North 3.5 mph - N/A   Clear
3:54 AM 12.2 °F 1.7 °F 10.4 °F 92% 30.08 in 10.0 mi North 6.9 mph - N/A   Clear
4:15 AM 14.0 °F 6.5 °F 10.4 °F 86% 30.08 in 10.0 mi North 4.6 mph - N/A   Clear
4:34 AM 14.0 °F 3.9 °F 10.4 °F 86% 30.08 in 10.0 mi North 6.9 mph - N/A   Clear
4:55 AM 14.0 °F 5.1 °F 10.4 °F 86% 30.07 in 10.0 mi NNE 5.8 mph - N/A   Clear
5:15 AM 14.0 °F 6.5 °F 10.4 °F 86% 30.07 in 10.0 mi North 4.6 mph - N/A   Scattered Clouds
5:35 AM 14.0 °F 5.1 °F 10.4 °F 86% 30.06 in 10.0 mi North 5.8 mph - N/A   Scattered Clouds
5:55 AM 14.0 °F 2.9 °F 10.4 °F 86% 30.05 in 10.0 mi North 8.1 mph - N/A   Mostly Cloudy
6:15 AM 14.0 °F 6.5 °F 10.4 °F 86% 30.05 in 10.0 mi North 4.6 mph - N/A   Scattered Clouds
6:35 AM 12.2 °F 2.9 °F 10.4 °F 92% 30.06 in 10.0 mi North 5.8 mph - N/A   Clear
6:55 AM 12.2 °F 4.3 °F 10.4 °F 92% 30.05 in 10.0 mi North 4.6 mph - N/A   Clear
7:35 AM 12.2 °F 2.9 °F 10.4 °F 92% 30.05 in 10.0 mi NNW 5.8 mph - N/A   Clear
7:55 AM 12.2 °F 1.7 °F 10.4 °F 92% 30.04 in 10.0 mi NNW 6.9 mph - N/A   Clear
8:14 AM 12.2 °F 1.7 °F 10.4 °F 92% 30.04 in 10.0 mi NNW 6.9 mph - N/A   Clear
8:35 AM 12.2 °F 0.7 °F 10.4 °F 92% 30.03 in 10.0 mi NNW 8.1 mph - N/A   Clear
8:55 AM 12.2 °F 0.7 °F 8.6 °F 85% 30.04 in 10.0 mi North 8.1 mph - N/A   Clear
9:14 AM 12.2 °F 0.7 °F 10.4 °F 92% 30.03 in 10.0 mi North 8.1 mph - N/A   Clear
9:35 AM 12.2 °F -2.5 °F 8.6 °F 85% 30.03 in 10.0 mi NNW 12.7 mph - N/A   Clear
9:55 AM 12.2 °F -1.0 °F 8.6 °F 85% 30.03 in 10.0 mi North 10.4 mph - N/A   Clear
10:15 AM 12.2 °F -1.0 °F 8.6 °F 85% 30.02 in 10.0 mi North 10.4 mph - N/A   Clear
10:35 AM 12.2 °F 0.7 °F 10.4 °F 92% 30.01 in 10.0 mi North 8.1 mph - N/A   Clear
10:55 AM 12.2 °F 2.9 °F 10.4 °F 92% 30.01 in 10.0 mi North 5.8 mph - N/A   Clear
11:15 AM 14.0 °F 3.9 °F 10.4 °F 86% 30.00 in 10.0 mi North 6.9 mph - N/A   Clear
11:35 AM 14.0 °F 1.2 °F 10.4 °F 86% 30.00 in 10.0 mi NNW 10.4 mph - N/A   Clear
11:55 AM 14.0 °F 0.5 °F 10.4 °F 86% 29.99 in 10.0 mi North 11.5 mph - N/A   Clear
12:15 PM 15.8 °F 2.7 °F 10.4 °F 79% 29.99 in 10.0 mi North 11.5 mph - N/A   Clear
12:35 PM 15.8 °F 2.1 °F 12.2 °F 86% 29.98 in 10.0 mi NNW 12.7 mph - N/A   Clear
1:15 PM 15.8 °F 3.4 °F 12.2 °F 86% 29.97 in 10.0 mi North 10.4 mph - N/A   Clear
1:35 PM 15.8 °F 2.7 °F 14.0 °F 93% 29.97 in 10.0 mi North 11.5 mph - N/A   Clear
1:54 PM 17.6 °F 5.7 °F 15.8 °F 93% 29.96 in 10.0 mi North 10.4 mph - N/A   Clear
2:15 PM 17.6 °F 5.7 °F 15.8 °F 93% 29.96 in 10.0 mi NNW 10.4 mph - N/A   Scattered Clouds
2:35 PM 17.6 °F 5.7 °F 15.8 °F 93% 29.96 in 10.0 mi North 10.4 mph - N/A   Scattered Clouds
2:54 PM 17.6 °F 5.0 °F 15.8 °F 93% 29.95 in 10.0 mi NNW 11.5 mph - N/A   Scattered Clouds
3:15 PM 17.6 °F 5.0 °F 15.8 °F 93% 29.95 in 10.0 mi NNW 11.5 mph - N/A   Scattered Clouds
3:35 PM 17.6 °F 5.7 °F 15.8 °F 93% 29.95 in 10.0 mi NNW 10.4 mph - N/A   Scattered Clouds
3:54 PM 17.6 °F 5.7 °F 15.8 °F 93% 29.95 in 10.0 mi NNW 10.4 mph - N/A   Scattered Clouds
4:15 PM 17.6 °F 5.0 °F 15.8 °F 93% 29.95 in 7.0 mi NNW 11.5 mph - N/A   Scattered Clouds
4:34 PM 17.6 °F 5.7 °F 15.8 °F 93% 29.95 in 10.0 mi North 10.4 mph - N/A   Mostly Cloudy
4:55 PM 17.6 °F 6.4 °F 17.6 °F 100% 29.95 in 10.0 mi North 9.2 mph - N/A   Overcast
5:15 PM 17.6 °F 8.2 °F 17.6 °F 100% 29.95 in 10.0 mi North 6.9 mph - N/A   Overcast
5:34 PM 17.6 °F 8.2 °F 17.6 °F 100% 29.96 in 10.0 mi North 6.9 mph - N/A   Overcast
5:55 PM 17.6 °F 8.2 °F 17.6 °F 100% 29.95 in 7.0 mi North 6.9 mph - N/A Snow Light Snow
6:14 PM 17.6 °F 8.2 °F 17.6 °F 100% 29.95 in 5.0 mi North 6.9 mph - N/A Snow Light Snow
6:35 PM 17.6 °F 9.3 °F 17.6 °F 100% 29.95 in 5.0 mi North 5.8 mph - N/A   Overcast
6:55 PM 17.6 °F 10.7 °F 17.6 °F 100% 29.95 in 5.0 mi NNW 4.6 mph - N/A Snow Light Snow
7:14 PM 17.6 °F 9.3 °F 17.6 °F 100% 29.95 in 7.0 mi NW 5.8 mph - N/A Snow Light Snow
7:35 PM 17.6 °F 9.3 °F 15.8 °F 93% 29.94 in 10.0 mi NNW 5.8 mph - N/A Snow Light Snow
7:55 PM 15.8 °F 8.6 °F 15.8 °F 100% 29.93 in 10.0 mi NNW 4.6 mph - N/A Snow Light Snow
8:14 PM 15.8 °F 8.6 °F 15.8 °F 100% 29.93 in 10.0 mi NNW 4.6 mph - N/A Snow Light Snow
8:35 PM 15.8 °F 8.6 °F 15.8 °F 100% 29.93 in 10.0 mi NNW 4.6 mph - N/A Snow Light Snow
8:55 PM 15.8 °F 8.6 °F 15.8 °F 100% 29.93 in 10.0 mi NNW 4.6 mph - N/A Snow Light Snow
9:15 PM 15.8 °F 8.6 °F 15.8 °F 100% 29.93 in 10.0 mi NNW 4.6 mph - N/A   Mostly Cloudy
9:35 PM 14.0 °F 6.5 °F 14.0 °F 100% 29.93 in 10.0 mi NNW 4.6 mph - N/A   Mostly Cloudy
9:54 PM 14.0 °F 6.5 °F 14.0 °F 100% 29.92 in 7.0 mi NNW 4.6 mph - N/A Snow Light Snow
10:15 PM 12.2 °F 2.9 °F 12.2 °F 100% 29.93 in 7.0 mi NW 5.8 mph - N/A Snow Light Snow
10:35 PM 14.0 °F 8.2 °F 14.0 °F 100% 29.93 in 10.0 mi NW 3.5 mph - N/A   Overcast
10:54 PM 14.0 °F 6.5 °F 14.0 °F 100% 29.93 in 7.0 mi WNW 4.6 mph - N/A   Overcast
11:15 PM 15.8 °F 8.6 °F 15.8 °F 100% 29.93 in 7.0 mi NW 4.6 mph - N/A   Overcast
11:35 PM 15.8 °F 8.6 °F 15.8 °F 100% 29.92 in 1.0 mi NW 4.6 mph - N/A   Overcast
11:55 PM 15.8 °F 7.2 °F 15.8 °F 100% 29.91 in 1.5 mi North 5.8 mph - N/A   Overcast